This is the latest recevied weather packets stored in our database for station/object N5YHM-13. If no packets are shown the sender has not sent any weather packets the latest 10 day(s).
| Time | Temp. | Humidity | Pressure | Rain* | Wind** | Luminosity | Snow |
|---|---|---|---|---|---|---|---|
| 1777574693 | 23.33° C | 94% | 1013.9 hPa | 30.73 mm | - | 16 W/m² | - |
| 1777574390 | 23.33° C | 94% | 1013.7 hPa | 30.73 mm | - | 21 W/m² | - |
| 1777574084 | 23.33° C | 94% | 1013.8 hPa | 30.73 mm | - | 21 W/m² | - |
| 1777573780 | 23.33° C | 94% | 1013.9 hPa | 30.73 mm | - | 20 W/m² | - |
| 1777573476 | 22.78° C | 93% | 1013.9 hPa | 30.73 mm | - | 24 W/m² | - |
| 1777573172 | 22.78° C | 94% | 1013.9 hPa | 30.73 mm | - | 21 W/m² | - |
| 1777572869 | 22.78° C | 93% | 1013.8 hPa | 30.73 mm | - | 17 W/m² | - |
| 1777572566 | 22.78° C | 93% | 1013.8 hPa | 30.73 mm | - | 24 W/m² | - |
| 1777572266 | 22.78° C | 94% | 1013.8 hPa | 30.73 mm | - | 30 W/m² | - |
| 1777571962 | 22.78° C | 95% | 1013.9 hPa | 30.73 mm | - | 47 W/m² | - |
| 1777571656 | 22.22° C | 95% | 1014.1 hPa | 30.73 mm | - | 38 W/m² | - |
| 1777571355 | 22.22° C | 96% | 1013.8 hPa | 30.73 mm | - | 37 W/m² | - |
| 1777571050 | 22.22° C | 97% | 1013.9 hPa | 30.73 mm | - | 37 W/m² | - |
| 1777570747 | 22.22° C | 98% | 1014 hPa | 30.73 mm | - | 29 W/m² | - |
| 1777570443 | 22.22° C | 99% | 1014.1 hPa | 30.73 mm | - | 43 W/m² | - |
| 1777570139 | 21.67° C | 99% | 1014.2 hPa | 30.73 mm | - | 42 W/m² | - |
| 1777569835 | 21.67° C | 99% | 1014.3 hPa | 30.73 mm | - | 27 W/m² | - |
| 1777569531 | 21.67° C | 99% | 1014.5 hPa | 30.73 mm | - | 46 W/m² | - |
| 1777569227 | 21.67° C | 99% | 1014.5 hPa | 30.73 mm | - | 32 W/m² | - |
| 1777568924 | 21.67° C | 99% | 1014.6 hPa | 30.73 mm | - | 36 W/m² | - |
| 1777568620 | 21.11° C | 99% | 1014.3 hPa | 30.73 mm | - | 32 W/m² | - |
| 1777568318 | 21.11° C | 99% | 1014.3 hPa | 29.46 mm | - | 20 W/m² | - |
| 1777568014 | 21.11° C | 99% | 1014.1 hPa | 24.64 mm | - | 10 W/m² | - |
| 1777567711 | 21.11° C | 99% | 1014.8 hPa | 21.59 mm | - | 6 W/m² | - |
| 1777567408 | 21.11° C | 99% | 1014.6 hPa | 21.59 mm | - | 5 W/m² | - |
* Rain latest hour (hover to see other rain measurements)
** Current wind speed in m/s (hover to see current wind gust speed)